Location: Eldred Sherwood Park Lake Dam
(42.9416°N, 93.5655°W)
Time: 11:14:33
(UTC+00:00)

ACS3 Solar Sail - Visible Passes

Search period start: 11 October 2024 00:00
Search period end: 21 October 2024 00:00
Orbit: 960 x 1036 km, 97.4° (Epoch: 10 October)

Date Brightness Start Highest point End Pass type
(mag) Time Alt. Az. Time Alt. Az. Time Alt. Az.
11 Oct 3.3 00:27:58 12° E 00:31:15 17° ENE 00:35:09 10° NNE visible
11 Oct 1.8 02:13:06 62° S 02:14:20 87° WSW 02:20:43 10° NNW visible
11 Oct 4.3 03:58:15 13° W 03:59:03 14° W 04:02:05 10° WNW visible
12 Oct 2.7 00:59:59 23° E 01:02:20 29° ENE 01:07:39 10° N visible
12 Oct 2.5 02:45:08 47° WSW 02:45:56 50° W 02:52:06 10° NNW visible
13 Oct 2.0 01:32:00 41° ESE 01:33:36 49° ENE 01:39:39 10° N visible
13 Oct 3.4 03:17:09 28° W 03:17:42 28° W 03:23:05 10° NW visible
14 Oct 3.4 00:18:52 11° E 00:22:01 15° ENE 00:25:28 10° NNE visible
14 Oct 1.7 02:04:00 66° SSE 02:05:00 85° ENE 02:11:21 10° N visible
14 Oct 4.2 03:49:09 15° W 03:49:37 16° W 03:53:14 10° NW visible
15 Oct 2.8 00:50:51 21° E 00:53:03 26° ENE 00:58:06 10° N visible
15 Oct 2.3 02:36:00 55° WSW 02:36:32 56° W 02:42:45 10° NNW visible
16 Oct 2.2 01:22:51 39° ESE 01:24:15 44° ENE 01:30:09 10° N visible
16 Oct 3.3 03:07:59 32° W 03:08:14 32° W 03:13:48 10° NNW visible
17 Oct 3.5 00:09:49 10° E 00:12:43 14° ENE 00:15:35 10° NNE visible
17 Oct 1.7 01:54:49 67° SE 01:55:35 76° ENE 02:01:53 10° N visible
17 Oct 4.1 03:39:58 18° W 03:40:05 18° W 03:44:11 10° NW visible
18 Oct 2.9 00:41:39 20° E 00:43:41 23° ENE 00:48:26 10° NNE visible
18 Oct 2.1 02:26:47 63° WSW 02:27:04 64° W 02:33:19 10° NNW visible
19 Oct 2.3 01:13:37 36° E 01:14:49 39° ENE 01:20:33 10° N visible
19 Oct 3.1 02:58:45 36° W 02:58:45 36° W 03:04:25 10° NNW visible
20 Oct 3.5 00:01:13 10° ENE 00:03:20 12° NE 00:05:27 10° NE visible
20 Oct 1.7 01:45:33 64° ESE 01:46:06 67° ENE 01:52:19 10° N visible
20 Oct 3.9 03:30:42 20° W 03:30:42 20° W 03:34:59 10° NW visible
